Location: Silverdale
(47.6506°N, 122.6941°W)
Time: 04:57:24
(UTC+00:00)

Altair - Pass Details

Date: 10 October 2022
Orbit: 1501 x 1682 km, 47.2° (Epoch: 05 December)

Event Time Altitude Azimuth Distance (km) Brightness Sun altitude
Rises 17:42:11 0° 291° (WNW) 4,874 9.7 27.9°
Reaches altitude 10° 17:45:35 10° 284° (WNW) 3,904 9.3 28.2°
Maximum altitude 17:54:27 38° 222° (SW) 2,382 9.0 29.1°
Drops below altitude 10° 18:03:26 10° 159° (SSE) 3,935 11.2 30.0°
Sets 18:06:53 0° 152° (SSE) 4,915 11.3 30.3°
